Location: Newark
(11.2914°S, 14.4718°E)
Time: 13:05:42
(UTC+00:00)

Vanguard 2 - Pass Details

Date: 22 September 2019
Orbit: 554 x 2937 km, 32.9° (Epoch: 18 October)

Event Time Altitude Azimuth Distance (km) Brightness Sun altitude
Rises 18:49:09 0° 231° (SW) 5,172 12.6 -28.0°
Reaches altitude 10° 18:52:16 10° 226° (SW) 4,460 12.0 -28.8°
Maximum altitude 19:05:23 55° 150° (SSE) 3,028 10.2 -32.0°
Enters shadow 19:09:51 47° 110° (ESE) 3,417 10.3 -33.1°
